Weather Roundup
Issued by NWS Chicago, IL

Home | Current Version | Previous Version | Graphics & Text | Print | Product List | Glossary On
Versions: 1 2 3 4 5 6 7 8 9 10 11 12 13 14 15 16 17 18 19 20 21 22 23 24 25 26 27 28 29 30 31 32 33 34 35 36 37 38 39 40 41 42 43 44 45 46 47 48 49 50
000
NZUS59 KLOT 240603
HRRLOT

CHICAGO AREA WEATHER ROUNDUP
NATIONAL WEATHER SERVICE CHICAGO/ROMEOVILLE IL
1200 AM CST FRI FEB 24 2017

NOTE: "FAIR" INDICATES FEW OR NO CLOUDS BELOW 12,000 FEET WITH NO
SIGNIFICANT WEATHER AND/OR OBSTRUCTIONS TO VISIBILITY.

* THESE STATIONS ARE NOT UNDER NWS QUALITY CONTROL. THEY ALSO MAY NOT
  REPORT WEATHER SUCH AS PRECIPITATION OR FOG.

ILZ005-006-012>014-019>023-240700-
NORTHEAST ILLINOIS

CITY           SKY/WX    TMP DP  RH WIND       PRES   REMARKS
OHARE          CLOUDY    40  37  89 NE17G24   29.66F
6HR MIN TEMP:  38; 6HR MAX TEMP:  40; 6HR PCP:  0.20;

MIDWAY         CLOUDY    41  38  89 NE15G23   29.64F
6HR MIN TEMP:  38; 6HR MAX TEMP:  42; 6HR PCP:  0.12;

AURORA         LGT RAIN  40  37  89 NE24G31   29.61F
6HR MIN TEMP:  38; 6HR MAX TEMP:  40; 6HR PCP:  0.09;

LANSING*       CLOUDY    39  39 100 NE7       29.64F
WAUKEGAN       MIX PCPN  37  35  92 NE24G32   29.69F
6HR MIN TEMP:  36; 6HR MAX TEMP:  37; 6HR PCP:  0.16;

DUPAGE AIRPORT LGT RAIN  39  36  89 NE18G24   29.63F
6HR MIN TEMP:  37; 6HR MAX TEMP:  39; 6HR PCP:  0.11;

WHEELING       CLOUDY    38  36  92 NE16G23   29.70F
6HR MIN TEMP:  36; 6HR MAX TEMP:  38; 6HR PCP:  0.09;

MORRIS*        CLOUDY    41  39  94 NE5       29.60F
NORTHERLY ISL    N/A     39  37  92 NW13        N/A
$$

WIZ051-052-058>065-066-070>072-240700-
SOUTHEAST WISCONSIN

CITY           SKY/WX    TMP DP  RH WIND       PRES   REMARKS
MILWAUKEE      LGT RAIN  35  32  88 NE21G29   29.75F FOG     WCI  24
6HR MIN TEMP:  35; 6HR MAX TEMP:  37; 6HR PCP:  0.31;

KENOSHA*       CLOUDY    36  34  92 NE24G33   29.72F
RACINE*        RAIN      36  33  89 NE22G31   29.76F
WEST BEND      LGT SNOW  32  32 100 NE18G28   29.76F WCI  20
$$

INZ001>003-010>013-019-020-240700-
NORTHWEST INDIANA

CITY           SKY/WX    TMP DP  RH WIND       PRES   REMARKS
GARY*          CLOUDY    40  39  97 NE7       29.65F
6HR MIN TEMP:  39; 6HR MAX TEMP:  40; 6HR PCP:  0.10;

MICHIGAN CITY* NOT AVBL
RENSSELAER*    NOT AVBL
VALPARAISO     MOCLDY    46  45  96 E9        29.64F FOG
$$

LMZ740>746-240700-
SOUTHERN LAKE MICHIGAN

STATION/POSITION TIME  SKY/WX   TEMP WIND        PRES    VSBY
                                AIR  DIR/SP/G
                 (UTC)          (F)  (DEG/KT/KT) (MB)    (MI)
HARRISON CRIB    0540            38  350/ 15/ 16   N/A
BURNHAM HARBOR   0600            39  340/ 14/ 14   N/A
CALUMET HARBOR   0530            38  360/  8/ 11 1004.0F
BURNS HARBOR     0540            36  360/  7/ 12 1005.1F
MICHIGAN CITY    0540            40   30/  4/  6   N/A
$$

ABBREVIATIONS USED IN REMARKS
   TC - TEMPERATURE IN CELSIUS
  WCI - WIND CHILL INDEX
   HX - HEAT INDEX
  VSB - VISIBILITY
$$




USA.gov is the U.S. government's official web portal to all federal, state and local government web resources and services.